Scf Baltica — A8IA5 — position and weather

sailwx.info

Track history (hours):
 
Tides and Currents Weather Stations Pressure Air Temp Water Temp Dewpoint Dewpoint Depression Visibility Wind Speed Wind Dir Waves Ship Positions

Scf Baltica

Last reported at 2014-Oct-24 04:14 UTC. Time now 2014-Oct-24 12:01 UTC.
Position N 60°02' E 027°18'.

Length 250 m; draft 9 m.

Type: Ship. MMSI: 636012813.

Date/timePositionNaut miles runAvg speedWind from/ knotsBaromVisibWave heightAir tempDewpointWater temp
2014-Oct-24 04:14N 60°02' E 027°18'810.0
2014-Oct-24 03:26N 59°58' E 027°04'8 9.4
2014-Oct-24 02:34N 59°59' E 026°48'9 9.4
2014-Oct-24 01:34N 59°58' E 026°29'48 9.5
2014-Oct-23 20:32N 59°47' E 024°57'10 9.0
2014-Oct-23 19:25N 59°45' E 024°37'8 9.1
2014-Oct-23 18:34N 59°43' E 024°22'19 9.3
2014-Oct-23 16:33N 59°37' E 023°47'10 9.7
2014-Oct-23 15:34N 59°34' E 023°29'  
2014-Oct-20 04:12N 59°37' E 023°16'812.1
2014-Oct-20 03:33N 59°39' E 023°30'1612.1
2014-Oct-20 02:14N 59°43' E 024°01'1012.2
2014-Oct-20 01:24N 59°46' E 024°20'1112.1
2014-Oct-20 00:31N 59°48' E 024°41'6012.1
2014-Oct-19 19:33N 60°01' E 026°37'1411.4
2014-Oct-19 18:21N 59°60' E 027°04'13 0.3
2014-Oct-18 00:33N 59°59' E 026°39'5112.7
2014-Oct-17 20:31N 59°47' E 024°60'1312.7
2014-Oct-17 19:30N 59°44' E 024°35'2512.7
2014-Oct-17 17:33N 59°37' E 023°48'36312.0
2014-Oct-16 11:24N 55°35' E 015°23'1112.9
2014-Oct-16 10:33N 55°30' E 015°06'1312.9
2014-Oct-16 09:33N 55°25' E 014°45'1312.8
2014-Oct-16 08:33N 55°15' E 014°29'1313.0
2014-Oct-16 07:33N 55°06' E 014°15'5213.0
2014-Oct-16 03:33N 54°46' E 012°51'1913.1
2014-Oct-16 02:08N 54°37' E 012°23'712.6
2014-Oct-16 01:33N 54°31' E 012°15'1211.5
2014-Oct-16 00:34N 54°24' E 011°59'140 9.1
2014-Oct-15 09:18N 56°44' E 011°51'811.3
2014-Oct-15 08:33N 56°52' E 011°48'1212.0
2014-Oct-15 07:33N 57°03' E 011°40'1212.1
2014-Oct-15 06:33N 57°15' E 011°33'1211.9
2014-Oct-15 05:33N 57°26' E 011°25'1211.7
2014-Oct-15 04:33N 57°35' E 011°10'1212.2
2014-Oct-15 03:33N 57°43' E 010°53'1111.2
2014-Oct-15 02:33N 57°47' E 010°34'1211.7
2014-Oct-15 01:33N 57°47' E 010°12'  
Track history (hours):
 
Tides and Currents Weather Stations Pressure Air Temp Water Temp Dewpoint Dewpoint Depression Visibility Wind Speed Wind Dir Waves Ship Positions

Scf Baltica

Last reported at 2014-Oct-24 04:14 UTC. Time now 2014-Oct-24 12:01 UTC.
Position N 60°02' E 027°18'.

Length 250 m; draft 9 m.

Type: Ship. MMSI: 636012813.

Date/timePositionNaut miles runAvg speedWind from/ knotsBaromVisibWave heightAir tempDewpointWater temp
2014-Oct-24 04:14N 60°02' E 027°18'810.0
2014-Oct-24 03:26N 59°58' E 027°04'8 9.4
2014-Oct-24 02:34N 59°59' E 026°48'9 9.4
2014-Oct-24 01:34N 59°58' E 026°29'48 9.5
2014-Oct-23 20:32N 59°47' E 024°57'10 9.0
2014-Oct-23 19:25N 59°45' E 024°37'8 9.1
2014-Oct-23 18:34N 59°43' E 024°22'19 9.3
2014-Oct-23 16:33N 59°37' E 023°47'10 9.7
2014-Oct-23 15:34N 59°34' E 023°29'  
2014-Oct-20 04:12N 59°37' E 023°16'812.1
2014-Oct-20 03:33N 59°39' E 023°30'1612.1
2014-Oct-20 02:14N 59°43' E 024°01'1012.2
2014-Oct-20 01:24N 59°46' E 024°20'1112.1
2014-Oct-20 00:31N 59°48' E 024°41'6012.1
2014-Oct-19 19:33N 60°01' E 026°37'1411.4
2014-Oct-19 18:21N 59°60' E 027°04'13 0.3
2014-Oct-18 00:33N 59°59' E 026°39'5112.7
2014-Oct-17 20:31N 59°47' E 024°60'1312.7
2014-Oct-17 19:30N 59°44' E 024°35'2512.7
2014-Oct-17 17:33N 59°37' E 023°48'36312.0
2014-Oct-16 11:24N 55°35' E 015°23'1112.9
2014-Oct-16 10:33N 55°30' E 015°06'1312.9
2014-Oct-16 09:33N 55°25' E 014°45'1312.8
2014-Oct-16 08:33N 55°15' E 014°29'1313.0
2014-Oct-16 07:33N 55°06' E 014°15'5213.0
2014-Oct-16 03:33N 54°46' E 012°51'1913.1
2014-Oct-16 02:08N 54°37' E 012°23'712.6
2014-Oct-16 01:33N 54°31' E 012°15'1211.5
2014-Oct-16 00:34N 54°24' E 011°59'140 9.1
2014-Oct-15 09:18N 56°44' E 011°51'811.3
2014-Oct-15 08:33N 56°52' E 011°48'1212.0
2014-Oct-15 07:33N 57°03' E 011°40'1212.1
2014-Oct-15 06:33N 57°15' E 011°33'1211.9
2014-Oct-15 05:33N 57°26' E 011°25'1211.7
2014-Oct-15 04:33N 57°35' E 011°10'1212.2
2014-Oct-15 03:33N 57°43' E 010°53'1111.2
2014-Oct-15 02:33N 57°47' E 010°34'1211.7
2014-Oct-15 01:33N 57°47' E 010°12'  

Dump ship's entire track history